Weather History for Truckee-Tahoe, CA

Change the Weather History Date:

Monday, November 25, 2013

  Actual Average Record
Temperature  
Mean Temperature 30 °F -  
Max Temperature 51 °F 44 °F 63 °F (1954)
Min Temperature 10 °F 20 °F -13 °F (2010)
Degree Days  
Heating Degree Days 34    
Moisture  
Dew Point 16 °F    
Average Humidity 72    
Maximum Humidity 92    
Minimum Humidity 24    
Precipitation  
Precipitation 0.00 in - - ()
Sea Level Pressure  
Sea Level Pressure 30.37 in    
Wind  
Wind Speed 1 mph (East)    
Max Wind Speed 8 mph    
Max Gust Speed -    
Visibility 10 miles    
Events      
Averages and records for this station are not official NWS values.
T = Trace of Precipitation, MM = Missing Value Source: NWS Daily Summary

Daily Weather History Graph

Daily Weather History Graph

Search for Another Location

Airport:

Trip Planner

Search our weather history database for the weather conditions in past years. The results will help you decide how hot, cold, wet, or windy it might be!

Date:

Astronomy

Nov. 25, 2013 Rise Set
Actual Time 6:55 AM PST 4:39 PM PST
Civil Twilight 6:26 AM PST 5:08 PM PST
Nautical Twilight 5:53 AM PST 5:41 PM PST
Astronomical Twilight 5:21 AM PST 6:14 PM PST
Moon No Moon Rise 12:16 PM PST (11/25)
Length of Visible Light 10h 42m
Length of Day
9h 44m
Waning Gibbous, 50% of the Moon is Illuminated
Nov 25
Waning Gibbous
Dec 2
New
Dec 9
First Quarter
Dec 17
Full
Dec 25
Last Quarter

Hourly Weather History & Observations

Time (PST) Temp. Windchill Dew Point Humidity Pressure Visibility Wind Dir Wind Speed Gust Speed Precip Events Conditions
12:15 AM 17.6 °F 12.3 °F 14.0 °F 86% 30.35 in 10.0 mi SE 3.5 mph - N/A   Clear
12:35 AM 15.8 °F - 12.2 °F 86% 30.35 in 10.0 mi Calm Calm - N/A   Clear
12:55 AM 19.4 °F - 14.0 °F 80% 30.35 in 10.0 mi Calm Calm - N/A   Clear
1:15 AM 17.6 °F 12.3 °F 14.0 °F 86% 30.35 in 10.0 mi ENE 3.5 mph - N/A   Clear
1:35 AM 14.0 °F - 10.4 °F 86% 30.36 in 10.0 mi Calm Calm - N/A   Clear
1:55 AM 14.0 °F - 10.4 °F 86% 30.36 in 10.0 mi Calm Calm - N/A   Clear
2:15 AM 15.8 °F - 12.2 °F 86% 30.36 in 10.0 mi Calm Calm - N/A   Clear
2:35 AM 15.8 °F - 12.2 °F 86% 30.36 in 10.0 mi Calm Calm - N/A   Clear
2:55 AM 12.2 °F - 8.6 °F 85% 30.35 in 10.0 mi Calm Calm - N/A   Clear
3:15 AM 15.8 °F - 12.2 °F 86% 30.35 in 10.0 mi Calm Calm - N/A   Clear
3:35 AM 14.0 °F - 8.6 °F 79% 30.35 in 10.0 mi Calm Calm - N/A   Clear
3:55 AM 14.0 °F 8.2 °F 10.4 °F 86% 30.35 in 10.0 mi NE 3.5 mph - N/A   Clear
4:15 AM 12.2 °F 6.1 °F 8.6 °F 85% 30.36 in 10.0 mi SSE 3.5 mph - N/A   Clear
4:35 AM 10.4 °F - 6.8 °F 85% 30.36 in 10.0 mi Calm Calm - N/A   Clear
4:55 AM 14.0 °F - 10.4 °F 86% 30.36 in 10.0 mi Calm Calm - N/A   Clear
5:15 AM 15.8 °F - 12.2 °F 86% 30.37 in 10.0 mi Calm Calm - N/A   Clear
5:35 AM 10.4 °F 4.0 °F 8.6 °F 92% 30.37 in 10.0 mi ESE 3.5 mph - N/A   Clear
6:55 AM 10.4 °F - 8.6 °F 92% 30.39 in 10.0 mi Calm Calm - N/A   Clear
7:45 AM 14.0 °F - 10.4 °F 86% 30.41 in 10.0 mi Calm Calm - N/A   Clear
8:45 AM 23.0 °F - 17.6 °F 80% 30.41 in 10.0 mi Calm Calm - N/A   Clear
9:45 AM 28.4 °F 24.6 °F 19.4 °F 69% 30.41 in 10.0 mi East 3.5 mph - N/A   Clear
10:50 AM 35.6 °F - 17.6 °F 48% 30.40 in 10.0 mi Calm Calm - N/A   Clear
11:50 AM 42.8 °F - 15.8 °F 34% 30.37 in 10.0 mi Calm Calm - N/A   Clear
12:50 PM 48.2 °F - 14.0 °F 25% 30.35 in 10.0 mi NNE 4.6 mph - N/A   Clear
1:55 PM 51.8 °F - 15.8 °F 24% 30.33 in 10.0 mi NNE 5.8 mph - N/A   Clear
2:55 PM 51.8 °F - 17.6 °F 26% 30.33 in 10.0 mi NNE 8.1 mph - N/A   Clear
4:50 PM 39.2 °F 37.0 °F 17.6 °F 42% 30.34 in 10.0 mi WNW 3.5 mph - N/A   Clear
4:55 PM 39.2 °F 37.0 °F 17.6 °F 42% 30.34 in 10.0 mi WNW 3.5 mph - N/A   Clear
5:15 PM 35.6 °F - 19.4 °F 52% 30.35 in 10.0 mi Calm Calm - N/A   Clear
5:35 PM 35.6 °F - 21.2 °F 56% 30.36 in 10.0 mi Calm Calm - N/A   Clear
5:55 PM 32.0 °F - 19.4 °F 60% 30.36 in 10.0 mi Calm Calm - N/A   Clear
6:15 PM 32.0 °F - 19.4 °F 60% 30.36 in 10.0 mi Calm Calm - N/A   Clear
6:35 PM 32.0 °F - 23.0 °F 69% 30.37 in 10.0 mi Calm Calm - N/A   Clear
6:55 PM 28.4 °F 24.6 °F 19.4 °F 69% 30.37 in 10.0 mi SSW 3.5 mph - N/A   Clear
7:15 PM 28.4 °F 24.6 °F 19.4 °F 69% 30.38 in 10.0 mi East 3.5 mph - N/A   Clear
7:35 PM 26.6 °F 22.6 °F 19.4 °F 74% 30.38 in 10.0 mi SW 3.5 mph - N/A   Clear
7:55 PM 24.8 °F - 19.4 °F 80% 30.38 in 10.0 mi Calm Calm - N/A   Clear
8:15 PM 28.4 °F - 19.4 °F 69% 30.38 in 10.0 mi Calm Calm - N/A   Clear
8:35 PM 24.8 °F - 19.4 °F 80% 30.39 in 10.0 mi Calm Calm - N/A   Clear
8:55 PM 24.8 °F 20.5 °F 19.4 °F 80% 30.39 in 10.0 mi WSW 3.5 mph - N/A   Clear
9:15 PM 26.6 °F - 19.4 °F 74% 30.39 in 10.0 mi Calm Calm - N/A   Clear
9:35 PM 26.6 °F - 19.4 °F 74% 30.39 in 10.0 mi Calm Calm - N/A   Clear
9:55 PM 24.8 °F - 19.4 °F 80% 30.39 in 10.0 mi Calm Calm - N/A   Clear
10:15 PM 24.8 °F - 19.4 °F 80% 30.39 in 10.0 mi Calm Calm - N/A   Clear
10:35 PM 24.8 °F - 19.4 °F 80% 30.39 in 10.0 mi Calm Calm - N/A   Clear
10:55 PM 24.8 °F - 19.4 °F 80% 30.39 in 10.0 mi Calm Calm - N/A   Clear
11:15 PM 24.8 °F - 19.4 °F 80% 30.39 in 10.0 mi Calm Calm - N/A   Clear
11:35 PM 23.0 °F - 19.4 °F 86% 30.39 in 10.0 mi Calm Calm - N/A   Clear
11:55 PM 24.8 °F - 19.4 °F 80% 30.39 in 10.0 mi Calm Calm - N/A   Clear